Regional Weather Roundup
Issued by NWS

Home | Current Version | Previous Version | Graphics & Text | Print | Product List | Glossary On
Versions: 1 2 3 4 5 6 7 8 9 10 11 12 13 14 15 16 17 18 19 20 21 22 23 24 25 26 27 28 29 30 31 32 33 34 35 36 37 38 39 40 41 42 43 44 45 46 47 48 49 50
069
ASUS43 KDMX 251803
RWRIA

WEATHER ROUNDUP FOR IOWA
NATIONAL WEATHER SERVICE DES MOINES IA
100 PM CDT MON JUL 25 2016

NOTE: "FAIR" INDICATES FEW OR NO CLOUDS BELOW 12,000 FEET WITH NO
SIGNIFICANT WEATHER AND/OR OBSTRUCTIONS TO VISIBILITY.

* - THESE STATIONS ARE NOT NWS STATIONS...THUS NOT UNDER NWS
QUALITY CONTROL.  THEY ALSO DO NOT REPORT WEATHER SUCH
AS PRECIPITATION OR FOG.

IAZ001>003-012>014-020>022-031>034-043>046-251900-
   NORTHWEST IOWA

CITY           SKY/WX    TMP DP  RH WIND       PRES   REMARKS
CARROLL *      SUNNY     82  64  54 VRB5      30.13S HX  84
CHEROKEE *     SUNNY     83  57  40 S3        30.13S HX  83
DENISON *      SUNNY     82  63  51 CALM      30.12F HX  83
LE MARS *      SUNNY     84  64  51 S8        30.13F HX  86
SHELDON *      SUNNY     82  61  47 VRB5      30.12S HX  83
SIOUX CITY     SUNNY     85  61  44 SE6       30.12F HX  85
6HR MIN TEMP:  63; 6HR MAX TEMP:  86;

SPENCER        SUNNY     82  57  42 CALM      30.12F HX  82
6HR MIN TEMP:  60; 6HR MAX TEMP:  83;

STORM LAKE *     N/A     82  57  42 CALM      30.15R HX  82
$$

IAZ055>058-069>071-079>083-090>094-251900-
   SOUTHWEST IOWA

CITY           SKY/WX    TMP DP  RH WIND       PRES   REMARKS
ATLANTIC *     SUNNY     82  64  54 N5        30.12F HX  84
CLARINDA *       N/A     81  66  61 MISG      30.13F HX  83
COUNCIL BLFS * SUNNY     81  66  61 CALM      30.13F HX  83
CRESTON *      CLOUDY    82  66  57 N3        30.13F HX  85
HARLAN  *      SUNNY     82  64  54 CALM      30.16F HX  84
LAMONI         CLOUDY    80  67  64 NE3       30.11S HX  82
6HR MIN TEMP:  64; 6HR MAX TEMP:  81;

RED OAK *      MOSUNNY   82  66  57 CALM      30.12F HX  85
SHENANDOAH *   MOSUNNY   81  68  65 CALM      30.12F HX  83
$$

IAZ047>049-059>061-072>074-084-251900-
   CENTRAL IOWA

CITY           SKY/WX    TMP DP  RH WIND       PRES   REMARKS
AMES           SUNNY     84  64  50 NW8       30.10F HX  85
6HR MIN TEMP:  66; 6HR MAX TEMP:  85;

ANKENY *         N/A    N/A N/A N/A MISG        N/A
BOONE *        SUNNY     82  63  51 VRB5      30.11S HX  83
CHARITON *       N/A    N/A N/A N/A MISG        N/A
DES MOINES     MOSUNNY   87  59  38 N8        30.09F HX  86
6HR MIN TEMP:  72; 6HR MAX TEMP:  88;

GRINNELL*      SUNNY     82  63  52 NW8       30.09F HX  83
KNOXVILLE *    SUNNY     82  63  51 N7        30.08S HX  83
MARSHALLTOWN   SUNNY     84  63  49 N7        30.09S HX  85
6HR MIN TEMP:  64; 6HR MAX TEMP:  84;

NEWTON *       SUNNY     82  64  54 N9        30.09F HX  84
PELLA *        SUNNY     83  66  56 N6        30.10S HX  85
PERRY *          N/A     82  66  59 CALM      30.12F HX  84
$$

IAZ004>006-015-016-023>025-035-036-251900-
   NORTH CENTRAL IOWA

CITY           SKY/WX    TMP DP  RH WIND       PRES   REMARKS
ALGONA *       SUNNY     82  61  47 N8        30.12F HX  83
ESTHERVILLE    SUNNY     80  64  58 S3        30.12F HX  82
6HR MIN TEMP:  61; 6HR MAX TEMP:  81;

FORT DODGE *   SUNNY     82  64  54 W6        30.13R HX  84
MASON CITY     SUNNY     82  62  50 NW13      30.11F HX  83
6HR MIN TEMP:  64; 6HR MAX TEMP:  82;

FOREST CITY *    N/A     81  61  50 W8G18     30.11S HX  81
IOWA FALLS *     N/A     83  63  51 NW8       30.11S HX  84
$$

IAZ007>011-017>019-026>030-037>042-050>054-066-251900-
   NORTHEAST IOWA

CITY           SKY/WX    TMP DP  RH WIND       PRES   REMARKS
CEDAR RAPIDS   SUNNY     82  65  56 NW9       30.06S HX  84
6HR MIN TEMP:  66; 6HR MAX TEMP:  83;

CHARLES CITY * SUNNY     81  66  61 NW9G15    30.09F HX  83
CLINTON *      SUNNY     83  68  60 N10       30.04F HX  86
DECORAH *      PTSUNNY   79  63  57 NW12G17   30.08R HX  80
DUBUQUE        SUNNY     81  64  56 N12       30.07S HX  82
6HR MIN TEMP:  67; 6HR MAX TEMP:  81;

MONTICELLO *   SUNNY     82  64  54 NW8G14    30.06R HX  84
OELWEIN *      SUNNY     81  64  57 NW10      30.09S HX  82
WATERLOO       SUNNY     82  62  50 NW13      30.06F HX  83
6HR MIN TEMP:  66; 6HR MAX TEMP:  82;

$$

IAZ064-065-067-068-078-251900-
   EAST CENTRAL IOWA

CITY           SKY/WX    TMP DP  RH WIND       PRES   REMARKS
DAVENPORT      SUNNY     83  65  54 N9        30.05S HX  85
6HR MIN TEMP:  68; 6HR MAX TEMP:  83;

IOWA CITY      SUNNY     84  65  52 NW9       30.06F HX  86
6HR MIN TEMP:  68; 6HR MAX TEMP:  85;

MT. PLEASANT * MOSUNNY   84  69  61 N9        30.07S HX  88
MUSCATINE *    MOSUNNY   82  64  54 N10       30.05S HX  84
QUAD CITIES    MOSUNNY   86  64  47 CALM      30.04R HX  87
6HR MIN TEMP:  73; 6HR MAX TEMP:  86;

$$

IAZ062-063-075>077-085>089-095>099-251900-
   SOUTHEAST IOWA

CITY           SKY/WX    TMP DP  RH WIND       PRES   REMARKS
BURLINGTON     MOSUNNY   83  70  64 VRB5      30.05S HX  87
6HR MIN TEMP:  71; 6HR MAX TEMP:  83;

FAIRFIELD *    MOSUNNY   81  66  61 N10       30.07R HX  83
KEOKUK *       MOSUNNY   82  68  61 N7        30.05F HX  85
OSKALOOSA *      N/A     81  70  70 N9        30.08F HX  84
CENTERVILLE *    N/A     81  66  61 N6        30.10S HX  83
OTTUMWA        MOSUNNY   83  68  60 N14       30.07F HX  86
6HR MIN TEMP:  64; 6HR MAX TEMP:  83;

WASHINGTON *   MOSUNNY   81  68  65 NW13      30.07S HX  83
$$

ABBREVIATIONS USED IN REMARKS
   TC - TEMPERATURES IN CELSIUS
  WCI - WIND CHILL INDEX
   HX - HEAT INDEX
  VSB - VISIBILITY
$$





USA.gov is the U.S. government's official web portal to all federal, state and local government web resources and services.